Tracking 29892 objects as of 21-Nov-2024
HD Live streaming from Space Station
objects crossing your sky now

STARLINK-31106

Track STARLINK-31106 now!
10-day predictions
STARLINK-31106 is classified as:


NORAD ID: 58689
Int'l Code: 2023-211Y
Perigee: 494.4 km
Apogee: 496.0 km
Inclination: 43.0 °
Period: 94.4 minutes
Semi major axis: 6866 km
RCS: Unknown
Launch date: December 29, 2023
Source: United States (US)
Launch site: AIR FORCE EASTERN TEST RANGE (AFETR)
Your satellite tracking list
Your tracking list is empty




NASA's NSSDC Master Catalog

Two Line Element Set (TLE):
1 58689U 23211Y   24325.79844047 -.00000958  00000-0 -26793-4 0  9999
2 58689  43.0006 238.5841 0001159 293.2170  66.8559 15.25908865 50027
Source of the keplerian elements: AFSPC